CAPE
0 0 0 0 0 0 0 0 0 0 0 0 0 38 161 470 854 686 526 512 452 405 544 503 1502 1548 1300 1281 1057 1172 1346 1348 1098 1276 1015 845 778 763 765 732 770 705 658
0 0 0 0 0 0 0 0 0 0 0 0 0 0 0 69 293 549 330 335 440 236 138 414 498 1379 1389 1632 1115 1204 1276 1365 1105 1107 1055 764 696 666 643 629 586 557 538
0 0 0 0 0 0 0 0 0 0 0 0 0 0 0 2 42 31 163 174 268 80 2 64 375 512 1479 1780 1580 1269 1269 1267 1149 1239 950 753 622 558 547 533 516 431 460
0 0 0 0 0 0 0 0 0 0 0 0 0 0 0 0 3 145 218 227 228 79 8 3 67 398 689 1723 2003 1694 1529 1283 1156 1126 950 716 596 510 461 445 438 358 387
0 0 0 0 0 0 0 0 0 0 0 0 0 0 0 0 0 10 77 152 270 216 108 54 26 21 304 558 1571 1595 1786 1553 1325 1192 886 780 602 487 417 368 333 314 309
0 0 0 0 0 0 0 0 0 0 0 0 0 0 0 0 0 0 0 91 103 155 134 91 58 123 124 49 373 1256 1589 1907 1696 1473 1220 924 668 464 371 319 271 218 259
0 0 0 0 0 0 0 0 0 0 0 0 0 0 0 0 0 0 0 30 65 50 23 133 199 172 136 63 16 357 1332 2005 1919 1593 1267 931 630 424 331 295 247 205 188
0 0 0 0 0 0 0 0 0 0 0 0 0 0 0 0 0 0 0 0 54 52 18 0 0 59 73 126 53 26 452 1253 1959 1783 1400 911 706 457 339 300 260 222 189
0 0 0 0 0 0 0 0 0 0 0 0 0 0 0 10 0 0 0 0 40 71 42 18 0 26 360 363 321 179 244 398 767 1053 1253 1051 791 576 393 322 266 232 216
0 0 0 0 0 0 0 0 0 0 0 0 0 0 0 0 0 0 0 0 28 91 165 167 168 128 145 276 392 323 246 190 375 862 708 1043 706 550 527 365 293 246 216
0 0 0 0 0 0 0 0 0 0 0 0 0 0 0 0 0 0 0 4 21 44 99 189 206 241 447 445 572 517 436 268 240 393 737 860 708 608 547 431 342 284 236
0 0 0 0 0 0 0 0 0 0 0 0 0 0 0 0 0 0 36 9 0 18 48 42 70 164 99 184 279 358 366 314 247 138 168 339 606 713 540 457 353 379 304
0 0 0 0 0 0 0 0 0 0 0 0 0 0 0 0 0 0 3 2 0 1 23 49 54 70 82 107 117 123 161 136 126 119 119 108 249 413 430 408 408 435 387
0 0 0 0 0 0 0 0 0 0 0 0 0 3 0 0 0 0 0 0 0 0 0 0 0 50 45 61 62 45 21 41 61 77 79 82 88 89 202 284 286 268 305
0 0 0 0 0 0 0 0 0 0 0 0 0 0 0 0 0 0 0 0 0 0 0 0 0 0 0 0 3 46 8 12 0 13 70 80 84 48 66 63 149 190 184
0 0 0 0 0 0 0 0 0 0 0 0 0 5 4 0 0 0 0 0 0 0 0 0 0 0 0 1 1 1 10 10 14 2 42 70 91 46 10 13 60 115 152
0 0 0 0 0 0 0 0 0 0 0 0 0 1 0 3 1 0 0 0 0 0 0 0 27 12 4 3 7 2 0 5 0 6 43 62 80 96 85 28 20 57 101
0 0 0 0 0 0 0 0 0 0 0 0 0 8 6 5 0 1 0 0 0 0 0 0 0 9 23 4 10 15 5 0 0 0 1 36 100 101 24 85 19 52 32
0 0 0 0 0 0 0 0 0 0 0 0 0 0 2 6 11 7 0 0 0 0 0 2 2 56 47 8 8 6 3 2 2 0 0 0 0 6 28 36 8 21 23
0 0 0 0 0 0 0 0 0 0 0 0 0 0 0 1 3 11 10 5 0 0 0 0 0 7 18 30 9 3 5 12 6 1 0 0 0 0 0 0 0 2 6
0 0 0 0 0 0 0 0 0 0 0 0 0 0 0 0 0 0 0 6 0 1 2 0 0 0 1 1 7 23 14 8 11 11 7 3 0 0 0 0 0 0 0
0 0 0 0 0 0 0 0 0 0 0 0 0 0 0 0 0 0 0 0 0 0 1 1 6 5 7 0 0 9 7 17 8 9 46 7 4 0 0 0 0 0 0
0 0 0 0 0 0 0 0 0 0 0 0 0 0 0 0 0 0 0 0 0 0 0 0 1 1 0 3 7 2 2 4 4 3 5 6 1 0 0 0 0 0 0
0 0 0 0 0 0 0 0 0 0 0 0 0 0 0 0 0 0 0 0 0 0 0 0 0 0 0 0 0 0 0 0 0 0 0 0 0 0 0 0 0 0 0
0 0 0 0 0 0 0 0 0 0 0 0 0 0 0 0 0 0 0 0 0 0 0 0 0 0 0 0 0 0 0 0 0 0 0 0 0 0 0 0 0 0 0
0 0 0 0 0 0 0 0 0 0 0 0 0 0 0 0 0 0 0 0 0 0 0 0 0 0 0 0 0 0 0 0 0 0 0 0 0 0 0 0 0 0 0
CIN
-0 -0 -0 -0 -0 -0 -0 -0 -0 -0 -0 -0 -0 -79 -47 -11 -3 -35 -55 -33 -45 -111 -105 -23 -6 -10 -12 -20 -26 -31 -24 -15 -16 -0 -2 -8 -8 -7 -6 -6 -2 -3 -1
-0 -0 -0 -0 -0 -0 -0 -0 -0 -0 -0 -0 -0 -0 -0 -57 -1 -0 -38 -53 -17 -116 -199 -59 -0 -5 -3 -7 -15 -34 -30 -18 -22 -13 -2 -8 -12 -13 -7 -5 -6 -5 -1
-0 -0 -0 -0 -0 -0 -0 -0 -0 -0 -0 -0 -0 -0 -0 -5 -21 -41 -8 -20 -34 -66 -18 -133 -81 -24 -1 -5 -34 -72 -50 -28 -27 -11 -12 -13 -13 -20 -15 -6 -5 -10 -6
-0 -0 -0 -0 -0 -0 -0 -0 -0 -0 -0 -0 -0 -0 -0 -0 -0 -4 -8 -17 -14 -13 -6 -115 -134 -70 -19 -12 -3 -16 -20 -27 -22 -19 -18 -24 -23 -21 -24 -20 -5 -8 -6
-0 -0 -0 -0 -0 -0 -0 -0 -0 -0 -0 -0 -0 -0 -0 -0 -0 -4 -18 -28 -9 -6 -4 -121 -138 -131 -68 -55 -39 -21 -7 -15 -17 -18 -21 -23 -23 -32 -26 -37 -37 -10 -10
-0 -0 -0 -0 -0 -0 -0 -0 -0 -0 -0 -0 -0 -0 -0 -0 -0 -0 -0 -50 -54 -13 -5 -31 -69 -71 -69 -94 -113 -37 -7 -5 -5 -7 -5 -10 -23 -28 -29 -34 -45 -56 -24
-0 -0 -0 -0 -0 -0 -0 -0 -0 -0 -0 -0 -0 -0 -0 -0 -0 -0 -0 -111 -125 -143 -120 -43 -17 -17 -37 -0 -38 -81 -4 -0 -0 -3 -6 -8 -30 -43 -38 -53 -39 -35 -59
-0 -0 -0 -0 -0 -0 -0 -0 -0 -0 -0 -0 -0 -0 -0 -0 -0 -0 -0 -0 -133 -98 -97 -0 -0 -85 -49 -9 -4 -85 -78 -22 -0 -0 -0 -20 -34 -53 -48 -44 -53 -41 -31
-0 -0 -0 -0 -0 -0 -0 -0 -0 -0 -0 -0 -0 -0 -0 -1 -0 -0 -0 -0 -111 -116 -103 -120 -0 -115 -3 -3 -33 -92 -64 -84 -29 -8 -1 -5 -27 -38 -40 -56 -55 -59 -56
-0 -0 -0 -0 -0 -0 -0 -0 -0 -0 -0 -0 -0 -0 -0 -0 -0 -0 -0 -0 -40 -35 -27 -27 -19 -14 -22 -12 -23 -47 -71 -92 -72 -22 -4 -4 -40 -47 -29 -48 -47 -45 -52
-0 -0 -0 -0 -0 -0 -0 -0 -0 -0 -0 -0 -0 -0 -0 -0 -0 -0 -0 -0 -1 -6 -10 -7 -21 -8 -3 -4 -5 -3 -16 -58 -62 -51 -26 -7 -20 -42 -36 -36 -46 -47 -46
-0 -0 -0 -0 -0 -0 -0 -0 -0 -0 -0 -0 -0 -0 -0 -0 -0 -0 -0 -1 -0 -0 -3 -0 -0 -16 -20 -14 -7 -11 -6 -11 -39 -45 -55 -16 -26 -33 -30 -37 -47 -49 -40
-0 -0 -0 -0 -0 -0 -0 -0 -0 -0 -0 -0 -0 -0 -0 -0 -0 -0 -0 -0 -0 -0 -0 -0 -0 -0 -0 -4 -29 -15 -2 -3 -14 -30 -42 -18 -30 -19 -14 -21 -29 -34 -34
-0 -0 -0 -0 -0 -0 -0 -0 -0 -0 -0 -0 -0 -1 -0 -0 -0 -0 -0 -0 -0 -0 -0 -0 -0 -0 -0 -0 -0 -1 -18 -8 -35 -48 -41 -37 -28 -26 -33 -19 -19 -36 -48
-0 -0 -0 -0 -0 -0 -0 -0 -0 -0 -0 -0 -0 -0 -0 -0 -0 -0 -0 -0 -0 -0 -0 -0 -0 -0 -0 -0 -3 -10 -24 -42 -0 -78 -55 -46 -36 -22 -15 -11 -9 -6 -24
-0 -0 -0 -0 -0 -0 -0 -0 -0 -0 -0 -0 -0 -2 -2 -0 -0 -0 -0 -0 -0 -0 -0 -0 -0 -0 -0 -0 -0 -16 -21 -45 -42 -40 -78 -30 -25 -17 -16 -0 -3 -0 -0
-0 -0 -0 -0 -0 -0 -0 -0 -0 -0 -0 -0 -0 -1 -1 -3 -1 -0 -0 -0 -0 -0 -0 -0 -0 -0 -0 -0 -0 -0 -0 -20 -0 -63 -67 -27 -34 -15 -8 -13 -6 -0 -1
-0 -0 -0 -0 -0 -0 -0 -0 -0 -0 -0 -0 -0 -1 -0 -2 -0 -1 -0 -0 -0 -0 -0 -0 -0 -0 -0 -0 -0 -0 -0 -0 -0 -0 -117 -57 -0 -0 -1 -0 -0 -0 -1
-0 -0 -0 -0 -0 -0 -0 -0 -0 -0 -0 -0 -0 -0 -0 -1 -0 -1 -0 -0 -0 -0 -0 -0 -1 -0 -0 -0 -0 -0 -0 -0 -0 -0 -0 -0 -0 -0 -4 -1 -0 -0 -4
-0 -0 -0 -0 -0 -0 -0 -0 -0 -0 -0 -0 -0 -0 -0 -1 -2 -1 -0 -0 -0 -0 -0 -0 -0 -0 -0 -0 -0 -0 -0 -2 -0 -0 -0 -0 -0 -0 -0 -0 -0 -0 -1
-0 -0 -0 -0 -0 -0 -0 -0 -0 -0 -0 -0 -0 -0 -0 -0 -0 -0 -0 -0 -0 -0 -0 -0 -0 -0 -0 -0 -0 -0 -0 -0 -0 -0 -0 -0 -0 -0 -0 -0 -0 -0 -0
-0 -0 -0 -0 -0 -0 -0 -0 -0 -0 -0 -0 -0 -0 -0 -0 -0 -0 -0 -0 -0 -1 -1 -0 -1 -0 -0 -0 -0 -0 -0 -0 -0 -0 -27 -0 -0 -0 -0 -0 -0 -0 -0
-0 -0 -0 -0 -0 -0 -0 -0 -0 -0 -0 -0 -0 -0 -0 -0 -0 -0 -0 -0 -0 -0 -0 -1 -0 -1 -0 -1 -0 -0 -0 -0 -0 -0 -0 -0 -0 -0 -0 -0 -0 -0 -0
-0 -0 -0 -0 -0 -0 -0 -0 -0 -0 -0 -0 -0 -0 -0 -0 -0 -0 -0 -0 -0 -0 -0 -0 -0 -0 -0 -0 -0 -0 -0 -0 -0 -0 -0 -0 -0 -0 -0 -0 -0 -0 -0
-0 -0 -0 -0 -0 -0 -0 -0 -0 -0 -0 -0 -0 -0 -0 -0 -0 -0 -0 -0 -0 -0 -0 -0 -0 -0 -0 -0 -0 -0 -0 -0 -0 -0 -0 -0 -0 -0 -0 -0 -0 -0 -0
-0 -0 -0 -0 -0 -0 -0 -0 -0 -0 -0 -0 -0 -0 -0 -0 -0 -0 -0 -0 -0 -0 -0 -0 -0 -0 -0 -0 -0 -0 -0 -0 -0 -0 -0 -0 -0 -0 -0 -0 -0 -0 -0
Wind_Speed
nan nan nan nan nan nan nan nan nan nan nan nan nan nan 45 42 48 48 51 51 51 52 35 42 24 34 26 30 25 14 19 18 19 19 21 20 18 15 16 19 21 20 19
nan nan nan nan nan nan nan nan nan nan nan nan nan nan nan nan 53 52 51 49 52 49 40 44 19 19 17 33 28 22 18 21 19 20 20 20 19 19 16 17 19 20 20
nan nan nan nan nan nan nan nan nan nan nan nan nan nan nan nan nan nan 55 49 49 nan nan nan 20 22 13 27 18 25 25 25 23 19 18 20 19 21 19 16 16 20 21
nan nan nan nan nan nan nan nan nan nan nan nan nan nan nan nan nan 57 57 52 50 nan nan nan nan 26 30 23 24 31 30 27 24 19 17 19 21 21 21 18 18 17 19
nan nan nan nan nan nan nan nan nan nan nan nan nan nan nan nan nan nan nan 56 51 49 41 nan nan nan 27 24 23 19 18 28 20 20 16 19 20 22 19 19 19 17 18
nan nan nan nan nan nan nan nan nan nan nan nan nan nan nan nan nan nan nan nan 51 50 43 nan nan 27 20 nan 19 12 18 19 22 19 16 18 20 22 20 19 18 18 19
nan nan nan nan nan nan nan nan nan nan nan nan nan nan nan nan nan nan nan nan nan nan nan 37 38 35 34 nan nan 14 5 13 22 18 18 17 19 22 20 22 20 16 19
nan nan nan nan nan nan nan nan nan nan nan nan nan nan nan nan nan nan nan nan nan nan nan nan nan nan nan 30 nan nan 16 7 9 23 20 19 19 23 22 22 21 19 16
nan nan nan nan nan nan nan nan nan nan nan nan nan nan nan nan nan nan nan nan nan nan nan nan nan nan 32 32 32 28 20 19 18 15 13 21 17 23 25 25 22 22 22
nan nan nan nan nan nan nan nan nan nan nan nan nan nan nan nan nan nan nan nan nan nan 53 48 45 40 37 35 31 29 27 24 25 20 18 10 18 25 27 27 24 22 24
nan nan nan nan nan nan nan nan nan nan nan nan nan nan nan nan nan nan nan nan nan nan nan 60 55 48 42 40 39 37 29 26 24 22 15 10 20 31 34 25 25 23 24
nan nan nan nan nan nan nan nan nan nan nan nan nan nan nan nan nan nan nan nan nan nan nan nan nan 64 nan 50 48 41 37 31 29 27 24 18 18 20 25 27 23 24 24
nan nan nan nan nan nan nan nan nan nan nan nan nan nan nan nan nan nan nan nan nan nan nan nan nan nan nan 66 65 62 54 45 35 31 30 29 28 22 21 28 26 24 24
nan nan nan nan nan nan nan nan nan nan nan nan nan nan nan nan nan nan nan nan nan nan nan nan nan nan nan nan nan nan nan nan nan nan nan nan nan nan 36 26 25 25 29
nan nan nan nan nan nan nan nan nan nan nan nan nan nan nan nan nan nan nan nan nan nan nan nan nan nan nan nan nan nan nan nan nan nan nan nan nan nan nan nan 35 25 22
nan nan nan nan nan nan nan nan nan nan nan nan nan nan nan nan nan nan nan nan nan nan nan nan nan nan nan nan nan nan nan nan nan nan nan nan nan nan nan nan nan 49 38
nan nan nan nan nan nan nan nan nan nan nan nan nan nan nan nan nan nan nan nan nan nan nan nan nan nan nan nan nan nan nan nan nan nan nan nan nan nan nan nan nan nan 75
nan nan nan nan nan nan nan nan nan nan nan nan nan nan nan nan nan nan nan nan nan nan nan nan nan nan nan nan nan nan nan nan nan nan nan nan 85 85 nan nan nan nan nan
nan nan nan nan nan nan nan nan nan nan nan nan nan nan nan nan nan nan nan nan nan nan nan nan nan nan nan nan nan nan nan nan nan nan nan nan nan nan nan nan nan nan nan
nan nan nan nan nan nan nan nan nan nan nan nan nan nan nan nan nan nan nan nan nan nan nan nan nan nan nan nan nan nan nan nan nan nan nan nan nan nan nan nan nan nan nan
nan nan nan nan nan nan nan nan nan nan nan nan nan nan nan nan nan nan nan nan nan nan nan nan nan nan nan nan nan nan nan nan nan nan nan nan nan nan nan nan nan nan nan
nan nan nan nan nan nan nan nan nan nan nan nan nan nan nan nan nan nan nan nan nan nan nan nan nan nan nan nan nan nan nan nan nan nan nan nan nan nan nan nan nan nan nan
nan nan nan nan nan nan nan nan nan nan nan nan nan nan nan nan nan nan nan nan nan nan nan nan nan nan nan nan nan nan nan nan nan nan nan nan nan nan nan nan nan nan nan
nan nan nan nan nan nan nan nan nan nan nan nan nan nan nan nan nan nan nan nan nan nan nan nan nan nan nan nan nan nan nan nan nan nan nan nan nan nan nan nan nan nan nan
nan nan nan nan nan nan nan nan nan nan nan nan nan nan nan nan nan nan nan nan nan nan nan nan nan nan nan nan nan nan nan nan nan nan nan nan nan nan nan nan nan nan nan
nan nan nan nan nan nan nan nan nan nan nan nan nan nan nan nan nan nan nan nan nan nan nan nan nan nan nan nan nan nan nan nan nan nan nan nan nan nan nan nan nan nan nan
Wind_Direction
nan nan nan nan nan nan nan nan nan nan nan nan nan nan 276 273 277 274 272 283 288 285 285 240 266 287 273 279 289 267 280 282 285 282 284 285 292 298 301 304 301 284 279
nan nan nan nan nan nan nan nan nan nan nan nan nan nan nan nan 274 276 276 275 281 286 286 298 252 268 267 335 283 272 271 271 271 273 279 282 289 292 294 299 302 306 289
nan nan nan nan nan nan nan nan nan nan nan nan nan nan nan nan nan nan 276 271 277 nan nan nan 299 259 354 336 345 292 268 268 264 270 278 282 283 288 288 288 293 309 313
nan nan nan nan nan nan nan nan nan nan nan nan nan nan nan nan nan 272 272 272 271 nan nan nan nan 266 298 311 344 334 267 255 263 266 279 284 284 285 291 286 285 294 306
nan nan nan nan nan nan nan nan nan nan nan nan nan nan nan nan nan nan nan 275 273 273 272 nan nan nan 300 300 326 348 302 260 248 266 273 281 286 286 288 291 287 287 295
nan nan nan nan nan nan nan nan nan nan nan nan nan nan nan nan nan nan nan nan 270 272 271 nan nan 267 275 nan 281 295 6 302 253 262 268 278 287 289 290 288 287 287 286
nan nan nan nan nan nan nan nan nan nan nan nan nan nan nan nan nan nan nan nan nan nan nan 263 259 255 254 nan nan 287 332 13 265 256 267 268 277 283 289 291 288 287 290
nan nan nan nan nan nan nan nan nan nan nan nan nan nan nan nan nan nan nan nan nan nan nan nan nan nan nan 245 nan nan 276 255 299 264 267 274 275 280 284 287 291 289 289
nan nan nan nan nan nan nan nan nan nan nan nan nan nan nan nan nan nan nan nan nan nan nan nan nan nan 247 242 243 254 267 276 277 286 303 264 270 276 279 282 288 291 293
nan nan nan nan nan nan nan nan nan nan nan nan nan nan nan nan nan nan nan nan nan nan 245 239 241 239 239 235 238 243 253 263 271 288 263 279 267 286 280 276 280 284 290
nan nan nan nan nan nan nan nan nan nan nan nan nan nan nan nan nan nan nan nan nan nan nan 234 235 236 232 233 236 236 242 246 256 270 278 274 273 280 285 273 275 278 285
nan nan nan nan nan nan nan nan nan nan nan nan nan nan nan nan nan nan nan nan nan nan nan nan nan 234 nan 228 231 231 236 235 235 244 255 257 248 262 284 287 273 277 283
nan nan nan nan nan nan nan nan nan nan nan nan nan nan nan nan nan nan nan nan nan nan nan nan nan nan nan 231 228 222 224 232 237 241 242 245 246 255 254 272 276 284 283
nan nan nan nan nan nan nan nan nan nan nan nan nan nan nan nan nan nan nan nan nan nan nan nan nan nan nan nan nan nan nan nan nan nan nan nan nan nan 236 251 262 276 288
nan nan nan nan nan nan nan nan nan nan nan nan nan nan nan nan nan nan nan nan nan nan nan nan nan nan nan nan nan nan nan nan nan nan nan nan nan nan nan nan 233 242 263
nan nan nan nan nan nan nan nan nan nan nan nan nan nan nan nan nan nan nan nan nan nan nan nan nan nan nan nan nan nan nan nan nan nan nan nan nan nan nan nan nan 228 232
nan nan nan nan nan nan nan nan nan nan nan nan nan nan nan nan nan nan nan nan nan nan nan nan nan nan nan nan nan nan nan nan nan nan nan nan nan nan nan nan nan nan 236
nan nan nan nan nan nan nan nan nan nan nan nan nan nan nan nan nan nan nan nan nan nan nan nan nan nan nan nan nan nan nan nan nan nan nan nan 231 232 nan nan nan nan nan
nan nan nan nan nan nan nan nan nan nan nan nan nan nan nan nan nan nan nan nan nan nan nan nan nan nan nan nan nan nan nan nan nan nan nan nan nan nan nan nan nan nan nan
nan nan nan nan nan nan nan nan nan nan nan nan nan nan nan nan nan nan nan nan nan nan nan nan nan nan nan nan nan nan nan nan nan nan nan nan nan nan nan nan nan nan nan
nan nan nan nan nan nan nan nan nan nan nan nan nan nan nan nan nan nan nan nan nan nan nan nan nan nan nan nan nan nan nan nan nan nan nan nan nan nan nan nan nan nan nan
nan nan nan nan nan nan nan nan nan nan nan nan nan nan nan nan nan nan nan nan nan nan nan nan nan nan nan nan nan nan nan nan nan nan nan nan nan nan nan nan nan nan nan
nan nan nan nan nan nan nan nan nan nan nan nan nan nan nan nan nan nan nan nan nan nan nan nan nan nan nan nan nan nan nan nan nan nan nan nan nan nan nan nan nan nan nan
nan nan nan nan nan nan nan nan nan nan nan nan nan nan nan nan nan nan nan nan nan nan nan nan nan nan nan nan nan nan nan nan nan nan nan nan nan nan nan nan nan nan nan
nan nan nan nan nan nan nan nan nan nan nan nan nan nan nan nan nan nan nan nan nan nan nan nan nan nan nan nan nan nan nan nan nan nan nan nan nan nan nan nan nan nan nan
nan nan nan nan nan nan nan nan nan nan nan nan nan nan nan nan nan nan nan nan nan nan nan nan nan nan nan nan nan nan nan nan nan nan nan nan nan nan nan nan nan nan nan